Year,Month,Day,Hour,Minute,Value (Times are PST for temperature in C)
2016,04,01,00,00,10.30
2016,04,01,00,01,10.30
2016,04,01,00,02,10.30
2016,04,01,00,03,10.30
2016,04,01,00,04,10.30
2016,04,01,00,05,10.20
2016,04,01,00,06,10.20
2016,04,01,00,07,10.20
2016,04,01,00,08,10.20
2016,04,01,00,09,10.20
2016,04,01,00,10,10.20
2016,04,01,00,11,10.10
2016,04,01,00,12,10.10
2016,04,01,00,13,10.10
2016,04,01,00,14,10.10
2016,04,01,00,15,10.10
2016,04,01,00,16,10.10
2016,04,01,00,17,10.00
2016,04,01,00,18,10.00
2016,04,01,00,19,10.00
2016,04,01,00,20,10.00
2016,04,01,00,21,10.00
2016,04,01,00,22,10.00
2016,04,01,00,23,10.00
2016,04,01,00,24,10.00
2016,04,01,00,25,10.00
2016,04,01,00,26,10.00
2016,04,01,00,27,9.90
2016,04,01,00,28,10.00
2016,04,01,00,29,10.00
2016,04,01,00,30,10.00
2016,04,01,00,31,10.00
2016,04,01,00,32,10.00
2016,04,01,00,33,10.00
2016,04,01,00,34,10.00
2016,04,01,00,35,10.00
2016,04,01,00,36,10.00
2016,04,01,00,37,9.90
2016,04,01,00,38,9.90
2016,04,01,00,39,9.90
2016,04,01,00,40,9.90
2016,04,01,00,41,9.90
2016,04,01,00,42,9.90
2016,04,01,00,43,9.90
2016,04,01,00,44,9.80
2016,04,01,00,45,9.80
2016,04,01,00,46,9.80
2016,04,01,00,47,9.80
2016,04,01,00,48,9.70
2016,04,01,00,49,9.70
2016,04,01,00,50,9.70
2016,04,01,00,51,9.70
2016,04,01,00,52,9.60
2016,04,01,00,53,9.60
2016,04,01,00,54,9.60
2016,04,01,00,55,9.60
2016,04,01,00,56,9.50
2016,04,01,00,57,9.50
2016,04,01,00,58,9.50
2016,04,01,00,59,9.40
2016,04,01,01,00,9.40
2016,04,01,01,01,9.40
2016,04,01,01,02,9.40
2016,04,01,01,03,9.40
2016,04,01,01,04,9.30
2016,04,01,01,05,9.30
2016,04,01,01,06,9.30
2016,04,01,01,07,9.30
2016,04,01,01,08,9.30
2016,04,01,01,09,9.30
2016,04,01,01,10,9.30
2016,04,01,01,11,9.30
2016,04,01,01,12,9.30
2016,04,01,01,13,9.30
2016,04,01,01,14,9.20
2016,04,01,01,15,9.20
2016,04,01,01,16,9.20
2016,04,01,01,17,9.20
2016,04,01,01,18,9.20
2016,04,01,01,19,9.20
2016,04,01,01,20,9.20
2016,04,01,01,21,9.20
2016,04,01,01,22,9.10
2016,04,01,01,23,9.10
2016,04,01,01,24,9.10
2016,04,01,01,25,9.10
2016,04,01,01,26,9.10
2016,04,01,01,27,9.10
2016,04,01,01,28,9.10
2016,04,01,01,29,9.00
2016,04,01,01,30,9.00
2016,04,01,01,31,9.00
2016,04,01,01,32,9.00
2016,04,01,01,33,9.00
2016,04,01,01,34,9.00
2016,04,01,01,35,8.90
2016,04,01,01,36,8.90
2016,04,01,01,37,8.90
2016,04,01,01,38,8.90
2016,04,01,01,39,8.90
2016,04,01,01,40,8.90
2016,04,01,01,41,8.80
2016,04,01,01,42,8.80
2016,04,01,01,43,8.80
2016,04,01,01,44,8.80
2016,04,01,01,45,8.80
2016,04,01,01,46,8.80
2016,04,01,01,47,8.80
2016,04,01,01,48,8.80
2016,04,01,01,49,8.80
2016,04,01,01,50,8.80
2016,04,01,01,51,8.80
2016,04,01,01,52,8.80
2016,04,01,01,53,8.80
2016,04,01,01,54,8.80
2016,04,01,01,55,8.80
2016,04,01,01,56,8.80
2016,04,01,01,57,8.80
2016,04,01,01,58,8.80
2016,04,01,01,59,8.80
2016,04,01,02,00,8.80
2016,04,01,02,01,8.80
2016,04,01,02,02,8.80
2016,04,01,02,03,8.80
2016,04,01,02,04,8.80
2016,04,01,02,05,8.80
2016,04,01,02,06,8.70
2016,04,01,02,07,8.70
2016,04,01,02,08,8.70
2016,04,01,02,09,8.70
2016,04,01,02,10,8.70
2016,04,01,02,11,8.70
2016,04,01,02,12,8.60
2016,04,01,02,13,8.60
2016,04,01,02,14,8.60
2016,04,01,02,15,8.60
2016,04,01,02,16,8.60
2016,04,01,02,17,8.60
2016,04,01,02,18,8.60
2016,04,01,02,19,8.50
2016,04,01,02,20,8.50
2016,04,01,02,21,8.50
2016,04,01,02,22,8.50
2016,04,01,02,23,8.40
2016,04,01,02,24,8.40
2016,04,01,02,25,8.40
2016,04,01,02,26,8.40
2016,04,01,02,27,8.40
2016,04,01,02,28,8.40
2016,04,01,02,29,8.40
2016,04,01,02,30,8.30
2016,04,01,02,31,8.30
2016,04,01,02,32,8.30
2016,04,01,02,33,8.30
2016,04,01,02,34,8.30
2016,04,01,02,35,8.30
2016,04,01,02,36,8.30
2016,04,01,02,37,8.30
2016,04,01,02,38,8.30
2016,04,01,02,39,8.30
2016,04,01,02,40,8.30
2016,04,01,02,41,8.30
2016,04,01,02,42,8.30
2016,04,01,02,43,8.30
2016,04,01,02,44,8.30
2016,04,01,02,45,8.30
2016,04,01,02,46,8.30
2016,04,01,02,47,8.30
2016,04,01,02,48,8.30
2016,04,01,02,49,8.30
2016,04,01,02,50,8.30
2016,04,01,02,51,8.30
2016,04,01,02,52,8.20
2016,04,01,02,53,8.20
2016,04,01,02,54,8.20
2016,04,01,02,55,8.20
2016,04,01,02,56,8.20
2016,04,01,02,57,8.20
2016,04,01,02,58,8.20
2016,04,01,02,59,8.20
2016,04,01,03,00,8.20
2016,04,01,03,01,8.20
2016,04,01,03,02,8.20
2016,04,01,03,03,8.20
2016,04,01,03,04,8.10
2016,04,01,03,05,8.20
2016,04,01,03,06,8.10
2016,04,01,03,07,8.10
2016,04,01,03,08,8.10
2016,04,01,03,09,8.10
2016,04,01,03,10,8.10
2016,04,01,03,11,8.10
2016,04,01,03,12,8.10
2016,04,01,03,13,8.10
2016,04,01,03,14,8.00
2016,04,01,03,15,8.00
2016,04,01,03,16,8.00
2016,04,01,03,17,8.00
2016,04,01,03,18,8.00
2016,04,01,03,19,8.00
2016,04,01,03,20,8.00
2016,04,01,03,21,8.00
2016,04,01,03,22,8.00
2016,04,01,03,23,8.00
2016,04,01,03,24,8.00
2016,04,01,03,25,8.00
2016,04,01,03,26,8.00
2016,04,01,03,27,8.00
2016,04,01,03,28,8.00
2016,04,01,03,29,7.90
2016,04,01,03,30,7.90
2016,04,01,03,31,7.90
2016,04,01,03,32,7.90
2016,04,01,03,33,7.90
2016,04,01,03,34,7.90
2016,04,01,03,35,7.90
2016,04,01,03,36,7.90
2016,04,01,03,37,7.80
2016,04,01,03,38,7.80
2016,04,01,03,39,7.80
2016,04,01,03,40,7.80
2016,04,01,03,41,7.80
2016,04,01,03,42,7.80
2016,04,01,03,43,7.80
2016,04,01,03,44,7.80
2016,04,01,03,45,7.80
2016,04,01,03,46,7.80
2016,04,01,03,47,7.80
2016,04,01,03,48,7.70
2016,04,01,03,49,7.70
2016,04,01,03,50,7.70
2016,04,01,03,51,7.70
2016,04,01,03,52,7.70
2016,04,01,03,53,7.70
2016,04,01,03,54,7.70
2016,04,01,03,55,7.70
2016,04,01,03,56,7.70
2016,04,01,03,57,7.70
2016,04,01,03,58,7.70
2016,04,01,03,59,7.70
2016,04,01,04,00,7.70
2016,04,01,04,01,7.80
2016,04,01,04,02,7.80
2016,04,01,04,03,7.80
2016,04,01,04,04,7.80
2016,04,01,04,05,7.80
2016,04,01,04,06,7.80
2016,04,01,04,07,7.80
2016,04,01,04,08,7.80
2016,04,01,04,09,7.80
2016,04,01,04,10,7.80
2016,04,01,04,11,7.80
2016,04,01,04,12,7.80
2016,04,01,04,13,7.80
2016,04,01,04,14,7.70
2016,04,01,04,15,7.70
2016,04,01,04,16,7.70
2016,04,01,04,17,7.70
2016,04,01,04,18,7.60
2016,04,01,04,19,7.60
2016,04,01,04,20,7.60
2016,04,01,04,21,7.60
2016,04,01,04,22,7.60
2016,04,01,04,23,7.60
2016,04,01,04,24,7.60
2016,04,01,04,25,7.60
2016,04,01,04,26,7.60
2016,04,01,04,27,7.60
2016,04,01,04,28,7.60
2016,04,01,04,29,7.60
2016,04,01,04,30,7.60
2016,04,01,04,31,7.60
2016,04,01,04,32,7.60
2016,04,01,04,33,7.60
2016,04,01,04,34,7.60
2016,04,01,04,35,7.50
2016,04,01,04,36,7.50
2016,04,01,04,37,7.50
2016,04,01,04,38,7.50
2016,04,01,04,39,7.40
2016,04,01,04,40,7.40
2016,04,01,04,41,7.40
2016,04,01,04,42,7.40
2016,04,01,04,43,7.40
2016,04,01,04,44,7.40
2016,04,01,04,45,7.40
2016,04,01,04,46,7.40
2016,04,01,04,47,7.40
2016,04,01,04,48,7.40
2016,04,01,04,49,7.40
2016,04,01,04,50,7.30
2016,04,01,04,51,7.30
2016,04,01,04,52,7.30
2016,04,01,04,53,7.30
2016,04,01,04,54,7.30
2016,04,01,04,55,7.20
2016,04,01,04,56,7.20
2016,04,01,04,57,7.20
2016,04,01,04,58,7.20
2016,04,01,04,59,7.20
2016,04,01,05,00,7.20
2016,04,01,05,01,7.10
2016,04,01,05,02,7.10
2016,04,01,05,03,7.10
2016,04,01,05,04,7.10
2016,04,01,05,05,7.10
2016,04,01,05,06,7.10
2016,04,01,05,07,7.10
2016,04,01,05,08,7.10
2016,04,01,05,09,7.10
2016,04,01,05,10,7.10
2016,04,01,05,11,7.10
2016,04,01,05,12,7.10
2016,04,01,05,13,7.10
2016,04,01,05,14,7.10
2016,04,01,05,15,7.10
2016,04,01,05,16,7.10
2016,04,01,05,17,7.10
2016,04,01,05,18,7.10
2016,04,01,05,19,7.10
2016,04,01,05,20,7.00
2016,04,01,05,21,7.00
2016,04,01,05,22,7.00
2016,04,01,05,23,7.00
2016,04,01,05,24,6.90
2016,04,01,05,25,6.90
2016,04,01,05,26,6.90
2016,04,01,05,27,6.90
2016,04,01,05,28,6.90
2016,04,01,05,29,6.90
2016,04,01,05,30,6.90
2016,04,01,05,31,6.90
2016,04,01,05,32,6.90
2016,04,01,05,33,6.90
2016,04,01,05,34,6.90
2016,04,01,05,35,6.90
2016,04,01,05,36,6.90
2016,04,01,05,37,6.90
2016,04,01,05,38,6.90
2016,04,01,05,39,6.90
2016,04,01,05,40,6.90
2016,04,01,05,41,6.90
2016,04,01,05,42,6.90
2016,04,01,05,43,6.90
2016,04,01,05,44,6.90
2016,04,01,05,45,6.90
2016,04,01,05,46,6.90
2016,04,01,05,47,6.90
2016,04,01,05,48,6.90
2016,04,01,05,49,6.80
2016,04,01,05,50,6.80
2016,04,01,05,51,6.80
2016,04,01,05,52,6.80
2016,04,01,05,53,6.80
2016,04,01,05,54,6.80
2016,04,01,05,55,6.80
2016,04,01,05,56,6.80
2016,04,01,05,57,6.80
2016,04,01,05,58,6.80
2016,04,01,05,59,6.80
2016,04,01,06,00,6.80
2016,04,01,06,01,6.80
2016,04,01,06,02,6.80
2016,04,01,06,03,6.80
2016,04,01,06,04,6.80
2016,04,01,06,05,6.80
2016,04,01,06,06,6.70
2016,04,01,06,07,6.70
2016,04,01,06,08,6.70
2016,04,01,06,09,6.70
2016,04,01,06,10,6.70
2016,04,01,06,11,6.70
2016,04,01,06,12,6.70
2016,04,01,06,13,6.70
2016,04,01,06,14,6.70
2016,04,01,06,15,6.60
2016,04,01,06,16,6.60
2016,04,01,06,17,6.60
2016,04,01,06,18,6.60
2016,04,01,06,19,6.60
2016,04,01,06,20,6.60
2016,04,01,06,21,6.50
2016,04,01,06,22,6.50
2016,04,01,06,23,6.50
2016,04,01,06,24,6.50
2016,04,01,06,25,6.50
2016,04,01,06,26,6.50
2016,04,01,06,27,6.50
2016,04,01,06,28,6.50
2016,04,01,06,29,6.60
2016,04,01,06,30,6.60
2016,04,01,06,31,6.60
2016,04,01,06,32,6.60
2016,04,01,06,33,6.60
2016,04,01,06,34,6.60
2016,04,01,06,35,6.50
2016,04,01,06,36,6.50
2016,04,01,06,37,6.50
2016,04,01,06,38,6.50
2016,04,01,06,39,6.50
2016,04,01,06,40,6.50
2016,04,01,06,41,6.40
2016,04,01,06,42,6.40
2016,04,01,06,43,6.40
2016,04,01,06,44,6.40
2016,04,01,06,45,6.40
2016,04,01,06,46,6.40
2016,04,01,06,47,6.40
2016,04,01,06,48,6.40
2016,04,01,06,49,6.40
2016,04,01,06,50,6.40
2016,04,01,06,51,6.30
2016,04,01,06,52,6.40
2016,04,01,06,53,6.30
2016,04,01,06,54,6.30
2016,04,01,06,55,6.30
2016,04,01,06,56,6.30
2016,04,01,06,57,6.30
2016,04,01,06,58,6.30
2016,04,01,06,59,6.40
2016,04,01,07,00,6.40
2016,04,01,07,01,6.40
2016,04,01,07,02,6.40
2016,04,01,07,03,6.40
2016,04,01,07,04,6.40
2016,04,01,07,05,6.40
2016,04,01,07,06,6.40
2016,04,01,07,07,6.40
2016,04,01,07,08,6.40
2016,04,01,07,09,6.40
2016,04,01,07,10,6.40
2016,04,01,07,11,6.40
2016,04,01,07,12,6.40
2016,04,01,07,13,6.40
2016,04,01,07,14,6.40
2016,04,01,07,15,6.40
2016,04,01,07,16,6.40
2016,04,01,07,17,6.40
2016,04,01,07,18,6.40
2016,04,01,07,19,6.40
2016,04,01,07,20,6.40
2016,04,01,07,21,6.40
2016,04,01,07,22,6.40
2016,04,01,07,23,6.40
2016,04,01,07,24,6.40
2016,04,01,07,25,6.50
2016,04,01,07,26,6.50
2016,04,01,07,27,6.50
2016,04,01,07,28,6.60
2016,04,01,07,29,6.60
2016,04,01,07,30,6.60
2016,04,01,07,31,6.70
2016,04,01,07,32,6.70
2016,04,01,07,33,6.70
2016,04,01,07,34,6.70
2016,04,01,07,35,6.80
2016,04,01,07,36,6.80
2016,04,01,07,37,6.80
2016,04,01,07,38,6.90
2016,04,01,07,39,7.00
2016,04,01,07,40,7.10
2016,04,01,07,41,7.20
2016,04,01,07,42,7.30
2016,04,01,07,43,7.40
2016,04,01,07,44,7.50
2016,04,01,07,45,7.60
2016,04,01,07,46,7.70
2016,04,01,07,47,7.70
2016,04,01,07,48,7.70
2016,04,01,07,49,7.80
2016,04,01,07,50,7.80
2016,04,01,07,51,7.90
2016,04,01,07,52,7.90
2016,04,01,07,53,8.00
2016,04,01,07,54,8.10
2016,04,01,07,55,8.20
2016,04,01,07,56,8.20
2016,04,01,07,57,8.30
2016,04,01,07,58,8.30
2016,04,01,07,59,8.40
2016,04,01,08,00,8.40
2016,04,01,08,01,8.50
2016,04,01,08,02,8.60
2016,04,01,08,03,8.70
2016,04,01,08,04,8.70
2016,04,01,08,05,8.80
2016,04,01,08,06,8.90
2016,04,01,08,07,9.00
2016,04,01,08,08,9.00
2016,04,01,08,09,9.10
2016,04,01,08,10,9.10
2016,04,01,08,11,9.10
2016,04,01,08,12,9.10
2016,04,01,08,13,9.20
2016,04,01,08,14,9.20
2016,04,01,08,15,9.20
2016,04,01,08,16,9.30
2016,04,01,08,17,9.30
2016,04,01,08,18,9.30
2016,04,01,08,19,9.40
2016,04,01,08,20,9.40
2016,04,01,08,21,9.50
2016,04,01,08,22,9.50
2016,04,01,08,23,9.60
2016,04,01,08,24,9.60
2016,04,01,08,25,9.70
2016,04,01,08,26,9.80
2016,04,01,08,27,9.80
2016,04,01,08,28,9.90
2016,04,01,08,29,10.00
2016,04,01,08,30,10.00
2016,04,01,08,31,10.10
2016,04,01,08,32,10.20
2016,04,01,08,33,10.30
2016,04,01,08,34,10.40
2016,04,01,08,35,10.40
2016,04,01,08,36,10.50
2016,04,01,08,37,10.60
2016,04,01,08,38,10.70
2016,04,01,08,39,10.70
2016,04,01,08,40,10.80
2016,04,01,08,41,10.80
2016,04,01,08,42,10.80
2016,04,01,08,43,10.90
2016,04,01,08,44,10.90
2016,04,01,08,45,10.90
2016,04,01,08,46,11.00
2016,04,01,08,47,11.10
2016,04,01,08,48,11.10
2016,04,01,08,49,11.20
2016,04,01,08,50,11.20
2016,04,01,08,51,11.30
2016,04,01,08,52,11.30
2016,04,01,08,53,11.30
2016,04,01,08,54,11.40
2016,04,01,08,55,11.40
2016,04,01,08,56,11.40
2016,04,01,08,57,11.50
2016,04,01,08,58,11.60
2016,04,01,08,59,11.60
2016,04,01,09,00,11.70
2016,04,01,09,01,11.70
2016,04,01,09,02,11.80
2016,04,01,09,03,11.90
2016,04,01,09,04,12.00
2016,04,01,09,05,12.00
2016,04,01,09,06,12.10
2016,04,01,09,07,12.20
2016,04,01,09,08,12.30
2016,04,01,09,09,12.40
2016,04,01,09,10,12.40
2016,04,01,09,11,12.50
2016,04,01,09,12,12.60
2016,04,01,09,13,12.70
2016,04,01,09,14,12.70
2016,04,01,09,15,12.80
2016,04,01,09,16,12.80
2016,04,01,09,17,12.80
2016,04,01,09,18,12.90
2016,04,01,09,19,12.90
2016,04,01,09,20,12.90
2016,04,01,09,21,13.00
2016,04,01,09,22,13.10
2016,04,01,09,23,13.10
2016,04,01,09,24,13.10
2016,04,01,09,25,13.20
2016,04,01,09,26,13.20
2016,04,01,09,27,13.20
2016,04,01,09,28,13.20
2016,04,01,09,29,13.30
2016,04,01,09,30,13.30
2016,04,01,09,31,13.40
2016,04,01,09,32,13.40
2016,04,01,09,33,13.50
2016,04,01,09,34,13.60
2016,04,01,09,35,13.70
2016,04,01,09,36,13.70
2016,04,01,09,37,13.80
2016,04,01,09,38,13.80
2016,04,01,09,39,13.90
2016,04,01,09,40,13.90
2016,04,01,09,41,13.90
2016,04,01,09,42,13.90
2016,04,01,09,43,13.90
2016,04,01,09,44,13.90
2016,04,01,09,45,14.00
2016,04,01,09,46,14.10
2016,04,01,09,47,14.20
2016,04,01,09,48,14.30
2016,04,01,09,49,14.30
2016,04,01,09,50,14.30
2016,04,01,09,51,14.40
2016,04,01,09,52,14.40
2016,04,01,09,53,14.40
2016,04,01,09,54,14.40
2016,04,01,09,55,14.40
2016,04,01,09,56,14.40
2016,04,01,09,57,14.30
2016,04,01,09,58,14.30
2016,04,01,09,59,14.30
2016,04,01,10,00,14.40
2016,04,01,10,01,14.40
2016,04,01,10,02,14.60
2016,04,01,10,03,14.70
2016,04,01,10,04,14.80
2016,04,01,10,05,14.80
2016,04,01,10,06,14.90
2016,04,01,10,07,15.00
2016,04,01,10,08,15.10
2016,04,01,10,09,15.10
2016,04,01,10,10,15.20
2016,04,01,10,11,15.30
2016,04,01,10,12,15.30
2016,04,01,10,13,15.30
2016,04,01,10,14,15.30
2016,04,01,10,15,15.30
2016,04,01,10,16,15.40
2016,04,01,10,17,15.40
2016,04,01,10,18,15.40
2016,04,01,10,19,15.40
2016,04,01,10,20,15.50
2016,04,01,10,21,15.50
2016,04,01,10,22,15.60
2016,04,01,10,23,15.70
2016,04,01,10,24,15.70
2016,04,01,10,25,15.70
2016,04,01,10,26,15.70
2016,04,01,10,27,15.80
2016,04,01,10,28,15.70
2016,04,01,10,29,15.70
2016,04,01,10,30,15.70
2016,04,01,10,31,15.70
2016,04,01,10,32,15.60
2016,04,01,10,33,15.60
2016,04,01,10,34,15.60
2016,04,01,10,35,15.70
2016,04,01,10,36,15.70
2016,04,01,10,37,15.80
2016,04,01,10,38,15.80
2016,04,01,10,39,15.80
2016,04,01,10,40,15.70
2016,04,01,10,41,15.70
2016,04,01,10,42,15.70
2016,04,01,10,43,15.70
2016,04,01,10,44,15.70
2016,04,01,10,45,15.70
2016,04,01,10,46,15.70
2016,04,01,10,47,15.70
2016,04,01,10,48,15.70
2016,04,01,10,49,15.80
2016,04,01,10,50,15.80
2016,04,01,10,51,15.90
2016,04,01,10,52,15.90
2016,04,01,10,53,16.00
2016,04,01,10,54,16.10
2016,04,01,10,55,16.10
2016,04,01,10,56,16.00
2016,04,01,10,57,16.00
2016,04,01,10,58,16.00
2016,04,01,10,59,16.00
2016,04,01,11,00,16.10
2016,04,01,11,01,16.10
2016,04,01,11,02,16.10
2016,04,01,11,03,16.20
2016,04,01,11,04,16.20
2016,04,01,11,05,16.30
2016,04,01,11,06,16.30
2016,04,01,11,07,16.30
2016,04,01,11,08,16.20
2016,04,01,11,09,16.10
2016,04,01,11,10,16.00
2016,04,01,11,11,15.90
2016,04,01,11,12,15.90
2016,04,01,11,13,15.80
2016,04,01,11,14,15.90
2016,04,01,11,15,15.90
2016,04,01,11,16,16.00
2016,04,01,11,17,16.10
2016,04,01,11,18,16.20
2016,04,01,11,19,16.20
2016,04,01,11,20,16.30
2016,04,01,11,21,16.20
2016,04,01,11,22,16.20
2016,04,01,11,23,16.20
2016,04,01,11,24,16.20
2016,04,01,11,25,16.10
2016,04,01,11,26,16.10
2016,04,01,11,27,16.00
2016,04,01,11,28,16.00
2016,04,01,11,29,15.90
2016,04,01,11,30,15.90
2016,04,01,11,31,15.80
2016,04,01,11,32,15.70
2016,04,01,11,33,15.70
2016,04,01,11,34,15.70
2016,04,01,11,35,15.70
2016,04,01,11,36,15.80
2016,04,01,11,37,15.80
2016,04,01,11,38,15.90
2016,04,01,11,39,15.90
2016,04,01,11,40,16.00
2016,04,01,11,41,16.10
2016,04,01,11,42,16.20
2016,04,01,11,43,16.30
2016,04,01,11,44,16.30
2016,04,01,11,45,16.40
2016,04,01,11,46,16.60
2016,04,01,11,47,16.70
2016,04,01,11,48,16.80
2016,04,01,11,49,16.80
2016,04,01,11,50,16.80
2016,04,01,11,51,16.80
2016,04,01,11,52,16.70
2016,04,01,11,53,16.80
2016,04,01,11,54,16.80
2016,04,01,11,55,16.80
2016,04,01,11,56,16.80
2016,04,01,11,57,16.80
2016,04,01,11,58,16.70
2016,04,01,11,59,16.60
2016,04,01,12,00,16.50
2016,04,01,12,01,16.40
2016,04,01,12,02,16.40
2016,04,01,12,03,16.50
2016,04,01,12,04,16.50
2016,04,01,12,05,16.60
2016,04,01,12,06,16.60
2016,04,01,12,07,16.60
2016,04,01,12,08,16.60
2016,04,01,12,09,16.60
2016,04,01,12,10,16.50
2016,04,01,12,11,16.60
2016,04,01,12,12,16.60
2016,04,01,12,13,16.60
2016,04,01,12,14,16.60
2016,04,01,12,15,16.60
2016,04,01,12,16,16.70
2016,04,01,12,17,16.80
2016,04,01,12,18,16.90
2016,04,01,12,19,16.90
2016,04,01,12,20,16.90
2016,04,01,12,21,17.00
2016,04,01,12,22,17.00
2016,04,01,12,23,17.10
2016,04,01,12,24,17.00
2016,04,01,12,25,17.00
2016,04,01,12,26,16.90
2016,04,01,12,27,16.90
2016,04,01,12,28,16.90
2016,04,01,12,29,16.90
2016,04,01,12,30,16.90
2016,04,01,12,31,17.00
2016,04,01,12,32,17.00
2016,04,01,12,33,17.10
2016,04,01,12,34,17.10
2016,04,01,12,35,17.00
2016,04,01,12,36,16.90
2016,04,01,12,37,16.90
2016,04,01,12,38,17.00
2016,04,01,12,39,17.10
2016,04,01,12,40,17.10
2016,04,01,12,41,17.20
2016,04,01,12,42,17.30
2016,04,01,12,43,17.30
2016,04,01,12,44,17.20
2016,04,01,12,45,17.20
2016,04,01,12,46,17.10
2016,04,01,12,47,17.00
2016,04,01,12,48,16.90
2016,04,01,12,49,16.90
2016,04,01,12,50,16.90
2016,04,01,12,51,16.80
2016,04,01,12,52,16.80
2016,04,01,12,53,16.80
2016,04,01,12,54,16.80
2016,04,01,12,55,16.80
2016,04,01,12,56,16.70
2016,04,01,12,57,16.70
2016,04,01,12,58,16.80
2016,04,01,12,59,16.90
2016,04,01,13,00,16.90
2016,04,01,13,01,16.90
2016,04,01,13,02,16.80
2016,04,01,13,03,16.80
2016,04,01,13,04,16.70
2016,04,01,13,05,16.70
2016,04,01,13,06,16.70
2016,04,01,13,07,16.70
2016,04,01,13,08,16.80
2016,04,01,13,09,16.80
2016,04,01,13,10,16.80
2016,04,01,13,11,16.80
2016,04,01,13,12,16.80
2016,04,01,13,13,16.80
2016,04,01,13,14,16.80
2016,04,01,13,15,16.90
2016,04,01,13,16,16.90
2016,04,01,13,17,16.90
2016,04,01,13,18,16.90
2016,04,01,13,19,16.90
2016,04,01,13,20,16.90
2016,04,01,13,21,16.90
2016,04,01,13,22,17.00
2016,04,01,13,23,17.00
2016,04,01,13,24,17.10
2016,04,01,13,25,17.10
2016,04,01,13,26,17.00
2016,04,01,13,27,17.00
2016,04,01,13,28,17.00
2016,04,01,13,29,17.10
2016,04,01,13,30,17.10
2016,04,01,13,31,17.20
2016,04,01,13,32,17.30
2016,04,01,13,33,17.40
2016,04,01,13,34,17.50
2016,04,01,13,35,17.60
2016,04,01,13,36,17.60
2016,04,01,13,37,17.70
2016,04,01,13,38,17.80
2016,04,01,13,39,17.80
2016,04,01,13,40,17.80
2016,04,01,13,41,17.80
2016,04,01,13,42,17.90
2016,04,01,13,43,18.00
2016,04,01,13,44,18.10
2016,04,01,13,45,18.20
2016,04,01,13,46,18.20
2016,04,01,13,47,18.30
2016,04,01,13,48,18.30
2016,04,01,13,49,18.40
2016,04,01,13,50,18.50
2016,04,01,13,51,18.50
2016,04,01,13,52,18.60
2016,04,01,13,53,18.70
2016,04,01,13,54,18.70
2016,04,01,13,55,18.70
2016,04,01,13,56,18.70
2016,04,01,13,57,18.80
2016,04,01,13,58,18.80
2016,04,01,13,59,18.80
2016,04,01,14,00,18.80
2016,04,01,14,01,18.80
2016,04,01,14,02,18.70
2016,04,01,14,03,18.70
2016,04,01,14,04,18.70
2016,04,01,14,05,18.60
2016,04,01,14,06,18.60
2016,04,01,14,07,18.60
2016,04,01,14,08,18.50
2016,04,01,14,09,18.50
2016,04,01,14,10,18.40
2016,04,01,14,11,18.40
2016,04,01,14,12,18.40
2016,04,01,14,13,18.30
2016,04,01,14,14,18.20
2016,04,01,14,15,18.30
2016,04,01,14,16,18.20
2016,04,01,14,17,18.30
2016,04,01,14,18,18.30
2016,04,01,14,19,18.40
2016,04,01,14,20,18.50
2016,04,01,14,21,18.60
2016,04,01,14,22,18.70
2016,04,01,14,23,18.80
2016,04,01,14,24,19.00
2016,04,01,14,25,19.10
2016,04,01,14,26,19.20
2016,04,01,14,27,19.40
2016,04,01,14,28,19.50
2016,04,01,14,29,19.50
2016,04,01,14,30,19.50
2016,04,01,14,31,19.60
2016,04,01,14,32,19.60
2016,04,01,14,33,19.50
2016,04,01,14,34,19.40
2016,04,01,14,35,19.30
2016,04,01,14,36,19.20
2016,04,01,14,37,19.20
2016,04,01,14,38,19.10
2016,04,01,14,39,19.00
2016,04,01,14,40,18.90
2016,04,01,14,41,18.90
2016,04,01,14,42,18.90
2016,04,01,14,43,18.90
2016,04,01,14,44,19.00
2016,04,01,14,45,19.00
2016,04,01,14,46,19.00
2016,04,01,14,47,18.90
2016,04,01,14,48,18.90
2016,04,01,14,49,18.90
2016,04,01,14,50,18.90
2016,04,01,14,51,18.90
2016,04,01,14,52,18.90
2016,04,01,14,53,18.90
2016,04,01,14,54,18.90
2016,04,01,14,55,18.90
2016,04,01,14,56,19.00
2016,04,01,14,57,19.00
2016,04,01,14,58,19.00
2016,04,01,14,59,19.10
2016,04,01,15,00,19.20
2016,04,01,15,01,19.20
2016,04,01,15,02,19.30
2016,04,01,15,03,19.20
2016,04,01,15,04,19.20
2016,04,01,15,05,19.20
2016,04,01,15,06,19.30
2016,04,01,15,07,19.30
2016,04,01,15,08,19.40
2016,04,01,15,09,19.40
2016,04,01,15,10,19.50
2016,04,01,15,11,19.60
2016,04,01,15,12,19.60
2016,04,01,15,13,19.70
2016,04,01,15,14,19.70
2016,04,01,15,15,19.70
2016,04,01,15,16,19.70
2016,04,01,15,17,19.70
2016,04,01,15,18,19.60
2016,04,01,15,19,19.60
2016,04,01,15,20,19.60
2016,04,01,15,21,19.60
2016,04,01,15,22,19.60
2016,04,01,15,23,19.60
2016,04,01,15,24,19.60
2016,04,01,15,25,19.60
2016,04,01,15,26,19.50
2016,04,01,15,27,19.40
2016,04,01,15,28,19.30
2016,04,01,15,29,19.30
2016,04,01,15,30,19.20
2016,04,01,15,31,19.20
2016,04,01,15,32,19.10
2016,04,01,15,33,19.10
2016,04,01,15,34,19.10
2016,04,01,15,35,19.20
2016,04,01,15,36,19.20
2016,04,01,15,37,19.20
2016,04,01,15,38,19.20
2016,04,01,15,39,19.20
2016,04,01,15,40,19.30
2016,04,01,15,41,19.20
2016,04,01,15,42,19.20
2016,04,01,15,43,19.10
2016,04,01,15,44,19.10
2016,04,01,15,45,19.10
2016,04,01,15,46,19.10
2016,04,01,15,47,19.20
2016,04,01,15,48,19.20
2016,04,01,15,49,19.20
2016,04,01,15,50,19.30
2016,04,01,15,51,19.30
2016,04,01,15,52,19.30
2016,04,01,15,53,19.30
2016,04,01,15,54,19.30
2016,04,01,15,55,19.30
2016,04,01,15,56,19.30
2016,04,01,15,57,19.30
2016,04,01,15,58,19.40
2016,04,01,15,59,19.40
2016,04,01,16,00,19.40
2016,04,01,16,01,19.50
2016,04,01,16,02,19.50
2016,04,01,16,03,19.50
2016,04,01,16,04,19.50
2016,04,01,16,05,19.50
2016,04,01,16,06,19.50
2016,04,01,16,07,19.40
2016,04,01,16,08,19.40
2016,04,01,16,09,19.40
2016,04,01,16,10,19.50
2016,04,01,16,11,19.50
2016,04,01,16,12,19.60
2016,04,01,16,13,19.60
2016,04,01,16,14,19.70
2016,04,01,16,15,19.70
2016,04,01,16,16,19.70
2016,04,01,16,17,19.70
2016,04,01,16,18,19.70
2016,04,01,16,19,19.70
2016,04,01,16,20,19.80
2016,04,01,16,21,19.80
2016,04,01,16,22,19.90
2016,04,01,16,23,19.90
2016,04,01,16,24,20.00
2016,04,01,16,25,20.00
2016,04,01,16,26,20.10
2016,04,01,16,27,20.20
2016,04,01,16,28,20.20
2016,04,01,16,29,20.20
2016,04,01,16,30,20.10
2016,04,01,16,31,20.10
2016,04,01,16,32,20.10
2016,04,01,16,33,20.20
2016,04,01,16,34,20.20
2016,04,01,16,35,20.20
2016,04,01,16,36,20.20
2016,04,01,16,37,20.10
2016,04,01,16,38,20.10
2016,04,01,16,39,20.10
2016,04,01,16,40,20.10
2016,04,01,16,41,20.10
2016,04,01,16,42,20.10
2016,04,01,16,43,20.00
2016,04,01,16,44,20.00
2016,04,01,16,45,20.00
2016,04,01,16,46,20.10
2016,04,01,16,47,20.10
2016,04,01,16,48,20.10
2016,04,01,16,49,20.10
2016,04,01,16,50,20.20
2016,04,01,16,51,20.20
2016,04,01,16,52,20.20
2016,04,01,16,53,20.20
2016,04,01,16,54,20.20
2016,04,01,16,55,20.20
2016,04,01,16,56,20.20
2016,04,01,16,57,20.20
2016,04,01,16,58,20.20
2016,04,01,16,59,20.20
2016,04,01,17,00,20.20
2016,04,01,17,01,20.20
2016,04,01,17,02,20.10
2016,04,01,17,03,20.10
2016,04,01,17,04,20.20
2016,04,01,17,05,20.20
2016,04,01,17,06,20.20
2016,04,01,17,07,20.20
2016,04,01,17,08,20.20
2016,04,01,17,09,20.20
2016,04,01,17,10,20.20
2016,04,01,17,11,20.20
2016,04,01,17,12,20.20
2016,04,01,17,13,20.20
2016,04,01,17,14,20.20
2016,04,01,17,15,20.30
2016,04,01,17,16,20.30
2016,04,01,17,17,20.30
2016,04,01,17,18,20.40
2016,04,01,17,19,20.30
2016,04,01,17,20,20.30
2016,04,01,17,21,20.20
2016,04,01,17,22,20.20
2016,04,01,17,23,20.20
2016,04,01,17,24,20.20
2016,04,01,17,25,20.20
2016,04,01,17,26,20.20
2016,04,01,17,27,20.10
2016,04,01,17,28,20.10
2016,04,01,17,29,20.00
2016,04,01,17,30,20.00
2016,04,01,17,31,19.90
2016,04,01,17,32,19.90
2016,04,01,17,33,19.90
2016,04,01,17,34,19.90
2016,04,01,17,35,19.90
2016,04,01,17,36,20.00
2016,04,01,17,37,20.00
2016,04,01,17,38,20.00
2016,04,01,17,39,19.90
2016,04,01,17,40,19.90